Time,TemperatureF,DewpointF,PressureIn,WindDirection,WindDirectionDegrees,WindSpeedMPH,WindSpeedGustMPH,Humidity,HourlyPrecipIn,Conditions,Clouds,dailyrainin,SoftwareType,DateUTC
2013-01-29 00:03:00,40.3,34.3,27.37,SW,225,3.4,3.4,79,0.00,,,0.00,WUHU216HW,2013-01-29 07:03:00,
2013-01-29 00:08:00,40.3,34.7,27.37,West,270,2.0,3.8,80,0.00,,,0.00,WUHU216HW,2013-01-29 07:08:00,
2013-01-29 00:13:00,40.1,34.5,27.37,South,180,1.6,3.8,80,0.00,,,0.00,WUHU216HW,2013-01-29 07:13:00,
2013-01-29 00:18:00,40.1,34.5,27.37,SE,135,1.8,3.1,80,0.00,,,0.00,WUHU216HW,2013-01-29 07:18:00,
2013-01-29 00:23:00,40.1,34.7,27.37,WSW,248,1.1,3.1,81,0.00,,,0.00,WUHU216HW,2013-01-29 07:23:00,
2013-01-29 00:28:00,40.1,34.5,27.37,SW,225,1.1,2.5,80,0.00,,,0.00,WUHU216HW,2013-01-29 07:28:00,
2013-01-29 00:33:00,40.1,34.5,27.37,South,180,1.1,2.5,80,0.00,,,0.00,WUHU216HW,2013-01-29 07:33:00,
2013-01-29 00:38:00,40.1,34.7,27.37,WSW,248,2.5,4.0,81,0.00,,,0.00,WUHU216HW,2013-01-29 07:38:00,
2013-01-29 00:43:00,40.1,34.5,27.37,ESE,113,2.0,4.0,80,0.00,,,0.00,WUHU216HW,2013-01-29 07:43:00,
2013-01-29 00:48:00,40.1,34.5,27.37,NNW,338,2.0,2.7,80,0.00,,,0.00,WUHU216HW,2013-01-29 07:48:00,
2013-01-29 00:53:00,40.1,34.7,27.37,SW,225,2.5,2.5,81,0.00,,,0.00,WUHU216HW,2013-01-29 07:53:00,
2013-01-29 00:58:00,40.1,34.5,27.37,WSW,248,1.6,2.5,80,0.00,,,0.00,WUHU216HW,2013-01-29 07:58:00,
2013-01-29 01:03:00,40.1,34.7,27.37,SW,225,1.8,2.7,81,0.00,,,0.00,WUHU216HW,2013-01-29 08:03:00,
2013-01-29 01:08:00,40.1,34.5,27.37,NW,315,0.4,4.3,80,0.00,,,0.00,WUHU216HW,2013-01-29 08:08:00,
2013-01-29 01:13:00,40.3,34.7,27.37,South,180,1.1,4.3,80,0.00,,,0.00,WUHU216HW,2013-01-29 08:13:00,
2013-01-29 01:18:00,40.3,34.3,27.37,NW,315,3.4,3.4,79,0.00,,,0.00,WUHU216HW,2013-01-29 08:18:00,
2013-01-29 01:23:00,40.3,34.3,27.37,WNW,293,1.8,4.5,79,0.00,,,0.00,WUHU216HW,2013-01-29 08:23:00,
2013-01-29 01:28:00,40.3,33.9,27.37,WSW,248,2.0,4.5,78,0.00,,,0.00,WUHU216HW,2013-01-29 08:28:00,
2013-01-29 01:33:00,40.3,33.9,27.37,WSW,248,4.3,4.3,78,0.00,,,0.00,WUHU216HW,2013-01-29 08:33:00,
2013-01-29 01:38:00,40.5,34.5,27.38,SSW,203,3.4,4.3,79,0.00,,,0.00,WUHU216HW,2013-01-29 08:38:00,
2013-01-29 01:43:00,40.5,34.1,27.37,South,180,4.0,6.0,78,0.00,,,0.00,WUHU216HW,2013-01-29 08:43:00,
2013-01-29 01:48:00,40.3,33.9,27.37,NW,315,3.4,6.0,78,0.00,,,0.00,WUHU216HW,2013-01-29 08:48:00,
2013-01-29 01:53:00,40.3,33.9,27.37,SSW,203,4.3,4.9,78,0.00,,,0.00,WUHU216HW,2013-01-29 08:53:00,
2013-01-29 01:58:00,40.3,34.3,27.37,NW,315,1.6,5.1,79,0.00,,,0.00,WUHU216HW,2013-01-29 08:58:00,
2013-01-29 02:03:00,40.3,33.9,27.37,WSW,248,2.7,5.1,78,0.00,,,0.00,WUHU216HW,2013-01-29 09:03:00,
2013-01-29 02:08:00,40.3,33.9,27.37,SSW,203,1.3,3.4,78,0.00,,,0.00,WUHU216HW,2013-01-29 09:08:00,
2013-01-29 02:13:00,40.3,33.9,27.36,North,0,2.2,4.3,78,0.00,,,0.00,WUHU216HW,2013-01-29 09:13:00,
2013-01-29 02:18:00,40.3,33.9,27.36,West,270,1.6,4.5,78,0.00,,,0.00,WUHU216HW,2013-01-29 09:18:00,
2013-01-29 02:23:00,40.3,33.9,27.36,SSW,203,1.6,4.5,78,0.00,,,0.00,WUHU216HW,2013-01-29 09:23:00,
2013-01-29 02:28:00,40.3,33.7,27.36,WSW,248,1.1,2.7,77,0.00,,,0.00,WUHU216HW,2013-01-29 09:28:00,
2013-01-29 02:33:00,40.3,33.7,27.37,SSW,203,2.2,3.6,77,0.00,,,0.00,WUHU216HW,2013-01-29 09:33:00,
2013-01-29 02:38:00,40.3,33.7,27.37,WSW,248,1.6,3.6,77,0.00,,,0.00,WUHU216HW,2013-01-29 09:38:00,
2013-01-29 02:43:00,40.3,33.7,27.37,SSE,158,2.2,2.5,77,0.00,,,0.00,WUHU216HW,2013-01-29 09:43:00,
2013-01-29 02:48:00,40.3,33.7,27.37,SSE,158,1.1,2.2,77,0.00,,,0.00,WUHU216HW,2013-01-29 09:48:00,
2013-01-29 02:53:00,40.3,33.7,27.37,SW,225,1.1,2.2,77,0.00,,,0.00,WUHU216HW,2013-01-29 09:53:00,
2013-01-29 02:58:00,40.3,33.7,27.37,WSW,248,1.1,2.0,77,0.00,,,0.00,WUHU216HW,2013-01-29 09:58:00,
2013-01-29 03:03:00,40.3,33.7,27.37,ENE,68,0.9,1.8,77,0.00,,,0.00,WUHU216HW,2013-01-29 10:03:00,
2013-01-29 03:08:00,40.3,33.9,27.37,WSW,248,2.5,2.5,78,0.00,,,0.00,WUHU216HW,2013-01-29 10:08:00,
2013-01-29 03:13:00,40.1,33.9,27.37,SW,225,0.7,2.5,78,0.00,,,0.00,WUHU216HW,2013-01-29 10:13:00,
2013-01-29 03:18:00,40.1,33.9,27.37,ESE,113,0.7,2.5,78,0.00,,,0.00,WUHU216HW,2013-01-29 10:18:00,
2013-01-29 03:23:00,40.0,33.3,27.38,SW,225,1.1,2.5,77,0.00,,,0.00,WUHU216HW,2013-01-29 10:23:00,
2013-01-29 03:28:00,40.0,33.7,27.38,SSE,158,1.3,2.0,78,0.00,,,0.00,WUHU216HW,2013-01-29 10:28:00,
2013-01-29 03:33:00,40.0,33.7,27.38,North,0,0.4,2.0,78,0.00,,,0.00,WUHU216HW,2013-01-29 10:33:00,
2013-01-29 03:38:00,40.0,33.7,27.38,SSE,158,0.7,2.5,78,0.00,,,0.00,WUHU216HW,2013-01-29 10:38:00,
2013-01-29 03:43:00,40.0,33.9,27.38,West,270,0.4,2.5,79,0.00,,,0.00,WUHU216HW,2013-01-29 10:43:00,
2013-01-29 03:48:00,40.0,33.9,27.38,East,90,0.4,1.6,79,0.00,,,0.00,WUHU216HW,2013-01-29 10:48:00,
2013-01-29 03:53:00,40.0,33.9,27.38,South,180,2.5,2.5,79,0.00,,,0.00,WUHU216HW,2013-01-29 10:53:00,
2013-01-29 03:58:00,40.0,33.9,27.38,SW,225,0.9,2.5,79,0.00,,,0.00,WUHU216HW,2013-01-29 10:58:00,
2013-01-29 04:03:00,40.0,33.7,27.38,WNW,293,2.9,4.0,78,0.00,,,0.00,WUHU216HW,2013-01-29 11:03:00,
2013-01-29 04:08:00,40.0,33.7,27.38,SW,225,1.6,4.0,78,0.00,,,0.00,WUHU216HW,2013-01-29 11:08:00,
2013-01-29 04:13:00,40.1,33.5,27.38,SW,225,2.5,3.4,77,0.00,,,0.00,WUHU216HW,2013-01-29 11:13:00,
2013-01-29 04:18:00,40.3,33.7,27.38,WNW,293,1.8,4.5,77,0.00,,,0.00,WUHU216HW,2013-01-29 11:18:00,
2013-01-29 04:23:00,40.3,33.3,27.38,SW,225,4.0,5.4,76,0.00,,,0.00,WUHU216HW,2013-01-29 11:23:00,
2013-01-29 04:28:00,40.3,32.9,27.38,SSW,203,4.7,5.4,75,0.00,,,0.00,WUHU216HW,2013-01-29 11:28:00,
2013-01-29 04:33:00,40.1,32.8,27.38,SSW,203,4.7,4.7,75,0.00,,,0.00,WUHU216HW,2013-01-29 11:33:00,
2013-01-29 04:38:00,40.1,32.8,27.38,WSW,248,2.7,4.7,75,0.00,,,0.00,WUHU216HW,2013-01-29 11:38:00,
2013-01-29 04:43:00,40.1,32.8,27.38,South,180,3.4,4.7,75,0.00,,,0.00,WUHU216HW,2013-01-29 11:43:00,
2013-01-29 04:48:00,40.0,32.7,27.38,SSW,203,1.1,4.0,75,0.00,,,0.00,WUHU216HW,2013-01-29 11:48:00,
2013-01-29 04:53:00,40.0,32.3,27.38,WSW,248,2.5,4.0,74,0.00,,,0.00,WUHU216HW,2013-01-29 11:53:00,
2013-01-29 04:58:00,39.8,32.1,27.38,SSW,203,1.8,4.0,74,0.00,,,0.00,WUHU216HW,2013-01-29 11:58:00,
2013-01-29 05:03:00,39.6,32.0,27.38,SW,225,2.0,3.8,74,0.00,,,0.00,WUHU216HW,2013-01-29 12:03:00,
2013-01-29 05:08:00,39.6,31.6,27.38,NNW,338,2.2,4.3,73,0.00,,,0.00,WUHU216HW,2013-01-29 12:08:00,
2013-01-29 05:13:00,39.4,31.8,27.38,WSW,248,2.2,4.3,74,0.00,,,0.00,WUHU216HW,2013-01-29 12:13:00,
2013-01-29 05:18:00,39.2,31.6,27.38,NW,315,1.1,3.8,74,0.00,,,0.00,WUHU216HW,2013-01-29 12:18:00,
2013-01-29 05:23:00,39.2,31.6,27.38,WSW,248,2.0,3.8,74,0.00,,,0.00,WUHU216HW,2013-01-29 12:23:00,
2013-01-29 05:28:00,39.1,31.4,27.38,NNW,338,0.2,3.4,74,0.00,,,0.00,WUHU216HW,2013-01-29 12:28:00,
2013-01-29 05:33:00,39.1,31.2,27.38,SW,225,2.0,3.4,73,0.00,,,0.00,WUHU216HW,2013-01-29 12:33:00,
2013-01-29 05:38:00,38.9,31.0,27.38,North,0,2.7,2.9,73,0.00,,,0.00,WUHU216HW,2013-01-29 12:38:00,
2013-01-29 05:43:00,38.7,30.8,27.39,NNW,338,1.1,2.9,73,0.00,,,0.00,WUHU216HW,2013-01-29 12:43:00,
2013-01-29 05:48:00,38.7,30.8,27.39,SW,225,1.3,2.7,73,0.00,,,0.00,WUHU216HW,2013-01-29 12:48:00,
2013-01-29 05:53:00,38.5,30.6,27.39,West,270,0.9,2.5,73,0.00,,,0.00,WUHU216HW,2013-01-29 12:53:00,
2013-01-29 05:58:00,38.5,30.2,27.39,SSW,203,2.5,2.5,72,0.00,,,0.00,WUHU216HW,2013-01-29 12:58:00,
2013-01-29 06:03:00,38.3,30.1,27.39,ENE,68,1.8,2.5,72,0.00,,,0.00,WUHU216HW,2013-01-29 13:03:00,
2013-01-29 06:08:00,38.3,29.8,27.39,SW,225,2.5,2.5,71,0.00,,,0.00,WUHU216HW,2013-01-29 13:08:00,
2013-01-29 06:13:00,38.3,29.8,27.39,SW,225,1.6,3.8,71,0.00,,,0.00,WUHU216HW,2013-01-29 13:13:00,
2013-01-29 06:18:00,38.3,29.8,27.39,SW,225,1.3,4.7,71,0.00,,,0.00,WUHU216HW,2013-01-29 13:18:00,
2013-01-29 06:23:00,38.2,29.6,27.40,West,270,1.6,4.7,71,0.00,,,0.00,WUHU216HW,2013-01-29 13:23:00,
2013-01-29 06:28:00,38.2,29.6,27.40,SSW,203,1.8,3.8,71,0.00,,,0.00,WUHU216HW,2013-01-29 13:28:00,
2013-01-29 06:33:00,38.2,29.6,27.40,SW,225,2.0,4.3,71,0.00,,,0.00,WUHU216HW,2013-01-29 13:33:00,
2013-01-29 06:38:00,38.0,29.4,27.40,WNW,293,4.0,4.3,71,0.00,,,0.00,WUHU216HW,2013-01-29 13:38:00,
2013-01-29 06:43:00,38.0,29.4,27.40,WSW,248,1.3,6.3,71,0.00,,,0.00,WUHU216HW,2013-01-29 13:43:00,
2013-01-29 06:48:00,37.8,29.3,27.41,WSW,248,1.3,6.3,71,0.00,,,0.00,WUHU216HW,2013-01-29 13:48:00,
2013-01-29 06:53:00,37.8,29.3,27.40,South,180,2.5,4.5,71,0.00,,,0.00,WUHU216HW,2013-01-29 13:53:00,
2013-01-29 06:58:00,37.8,29.3,27.41,South,180,1.8,4.3,71,0.00,,,0.00,WUHU216HW,2013-01-29 13:58:00,
2013-01-29 07:03:00,37.8,29.3,27.41,West,270,1.6,4.3,71,0.00,,,0.00,WUHU216HW,2013-01-29 14:03:00,
2013-01-29 07:08:00,37.6,29.1,27.41,WNW,293,2.0,4.5,71,0.00,,,0.00,WUHU216HW,2013-01-29 14:08:00,
2013-01-29 07:13:00,37.6,29.1,27.41,SSW,203,1.1,4.5,71,0.00,,,0.00,WUHU216HW,2013-01-29 14:13:00,
2013-01-29 07:18:00,37.4,29.0,27.42,West,270,2.5,4.0,71,0.00,,,0.00,WUHU216HW,2013-01-29 14:18:00,
2013-01-29 07:23:00,37.3,28.8,27.42,West,270,0.4,4.0,71,0.00,,,0.00,WUHU216HW,2013-01-29 14:23:00,
2013-01-29 07:28:00,37.3,29.1,27.42,NW,315,1.3,2.5,72,0.00,,,0.00,WUHU216HW,2013-01-29 14:28:00,
2013-01-29 07:33:00,37.1,28.9,27.43,North,0,0.4,2.0,72,0.00,,,0.00,WUHU216HW,2013-01-29 14:33:00,
2013-01-29 07:38:00,36.9,29.1,27.43,West,270,0.2,1.6,73,0.00,,,0.00,WUHU216HW,2013-01-29 14:38:00,
2013-01-29 07:43:00,36.7,28.9,27.43,WSW,248,0.2,1.6,73,0.00,,,0.00,WUHU216HW,2013-01-29 14:43:00,
2013-01-29 07:48:00,36.5,28.7,27.43,SSW,203,0.0,1.3,73,0.00,,,0.00,WUHU216HW,2013-01-29 14:48:00,
2013-01-29 07:53:00,36.5,29.0,27.43,West,270,0.4,1.3,74,0.00,,,0.00,WUHU216HW,2013-01-29 14:53:00,
2013-01-29 07:58:00,36.7,29.2,27.43,SE,135,0.2,1.6,74,0.00,,,0.00,WUHU216HW,2013-01-29 14:58:00,
2013-01-29 08:03:00,36.9,29.1,27.43,SW,225,1.1,2.7,73,0.00,,,0.00,WUHU216HW,2013-01-29 15:03:00,
2013-01-29 08:08:00,37.1,29.3,27.43,WSW,248,1.1,2.7,73,0.00,,,0.00,WUHU216HW,2013-01-29 15:08:00,
2013-01-29 08:13:00,37.3,29.1,27.43,NE,45,1.1,2.5,72,0.00,,,0.00,WUHU216HW,2013-01-29 15:13:00,
2013-01-29 08:18:00,37.4,29.3,27.44,SSE,158,0.9,2.5,72,0.00,,,0.00,WUHU216HW,2013-01-29 15:18:00,
2013-01-29 08:23:00,37.6,29.4,27.44,North,0,0.9,3.4,72,0.00,,,0.00,WUHU216HW,2013-01-29 15:23:00,
2013-01-29 08:28:00,37.8,29.3,27.44,SSE,158,0.4,3.4,71,0.00,,,0.00,WUHU216HW,2013-01-29 15:28:00,
2013-01-29 08:33:00,38.2,29.3,27.44,West,270,1.1,2.2,70,0.00,,,0.00,WUHU216HW,2013-01-29 15:33:00,
2013-01-29 08:38:00,38.3,29.1,27.45,WSW,248,0.4,2.9,69,0.00,,,0.00,WUHU216HW,2013-01-29 15:38:00,
2013-01-29 08:43:00,38.5,29.3,27.45,West,270,1.1,2.9,69,0.00,,,0.00,WUHU216HW,2013-01-29 15:43:00,
2013-01-29 08:48:00,38.5,28.8,27.44,NW,315,1.8,2.2,68,0.00,,,0.00,WUHU216HW,2013-01-29 15:48:00,
2013-01-29 08:53:00,38.9,29.2,27.44,SW,225,3.4,3.8,68,0.00,,,0.00,WUHU216HW,2013-01-29 15:53:00,
2013-01-29 08:58:00,39.2,28.7,27.45,NNW,338,2.7,4.3,66,0.00,,,0.00,WUHU216HW,2013-01-29 15:58:00,
2013-01-29 09:03:00,39.2,28.7,27.45,SSW,203,1.8,4.3,66,0.00,,,0.00,WUHU216HW,2013-01-29 16:03:00,
2013-01-29 09:08:00,39.6,29.1,27.45,SSW,203,3.4,4.3,66,0.00,,,0.00,WUHU216HW,2013-01-29 16:08:00,
2013-01-29 09:13:00,40.0,29.1,27.45,West,270,1.3,5.4,65,0.00,,,0.00,WUHU216HW,2013-01-29 16:13:00,
2013-01-29 09:18:00,40.1,29.3,27.45,ESE,113,2.9,5.4,65,0.00,,,0.00,WUHU216HW,2013-01-29 16:18:00,
2013-01-29 09:23:00,40.5,28.4,27.45,SSW,203,2.5,4.7,62,0.00,,,0.00,WUHU216HW,2013-01-29 16:23:00,
2013-01-29 09:28:00,40.7,28.6,27.45,North,0,1.6,4.7,62,0.00,,,0.00,WUHU216HW,2013-01-29 16:28:00,
2013-01-29 09:33:00,41.0,28.3,27.45,NW,315,4.0,5.4,60,0.00,,,0.00,WUHU216HW,2013-01-29 16:33:00,
2013-01-29 09:38:00,41.4,28.2,27.45,SSW,203,4.0,5.4,59,0.00,,,0.00,WUHU216HW,2013-01-29 16:38:00,
2013-01-29 09:43:00,41.8,28.0,27.45,ENE,68,4.5,5.4,58,0.00,,,0.00,WUHU216HW,2013-01-29 16:43:00,
2013-01-29 09:48:00,41.9,26.9,27.45,NW,315,3.4,6.5,55,0.00,,,0.00,WUHU216HW,2013-01-29 16:48:00,
2013-01-29 09:53:00,42.3,26.7,27.45,North,0,4.7,6.5,54,0.00,,,0.00,WUHU216HW,2013-01-29 16:53:00,
2013-01-29 09:58:00,42.8,27.3,27.46,NNW,338,4.7,6.0,54,0.00,,,0.00,WUHU216HW,2013-01-29 16:58:00,
2013-01-29 10:03:00,43.2,27.2,27.46,West,270,4.5,6.0,53,0.00,,,0.00,WUHU216HW,2013-01-29 17:03:00,
2013-01-29 10:08:00,43.9,27.5,27.46,WNW,293,3.4,4.7,52,0.00,,,0.00,WUHU216HW,2013-01-29 17:08:00,
2013-01-29 10:13:00,44.6,26.6,27.46,WNW,293,3.4,6.3,49,0.00,,,0.00,WUHU216HW,2013-01-29 17:13:00,
2013-01-29 10:18:00,45.4,26.2,27.46,WSW,248,4.0,6.3,47,0.00,,,0.00,WUHU216HW,2013-01-29 17:18:00,
2013-01-29 10:23:00,46.1,26.8,27.46,WSW,248,4.7,5.6,47,0.00,,,0.00,WUHU216HW,2013-01-29 17:23:00,
2013-01-29 10:28:00,46.8,26.5,27.46,West,270,3.4,6.5,45,0.00,,,0.00,WUHU216HW,2013-01-29 17:28:00,
2013-01-29 10:33:00,47.2,26.2,27.46,SW,225,1.3,6.9,44,0.00,,,0.00,WUHU216HW,2013-01-29 17:33:00,
2013-01-29 10:38:00,47.2,26.2,27.46,NW,315,4.9,6.9,44,0.00,,,0.00,WUHU216HW,2013-01-29 17:38:00,
2013-01-29 10:43:00,47.9,26.3,27.46,NNW,338,4.7,6.3,43,0.00,,,0.00,WUHU216HW,2013-01-29 17:43:00,
2013-01-29 10:48:00,48.8,26.0,27.46,SW,225,3.6,6.3,41,0.00,,,0.00,WUHU216HW,2013-01-29 17:48:00,
2013-01-29 10:53:00,48.6,24.0,27.46,South,180,2.7,4.9,38,0.00,,,0.00,WUHU216HW,2013-01-29 17:53:00,
2013-01-29 10:58:00,48.6,24.0,27.46,NNW,338,6.0,6.0,38,0.00,,,0.00,WUHU216HW,2013-01-29 17:58:00,
2013-01-29 11:03:00,49.1,23.1,27.46,WSW,248,5.1,7.6,36,0.00,,,0.00,WUHU216HW,2013-01-29 18:03:00,
2013-01-29 11:08:00,49.3,22.0,27.46,WNW,293,4.3,7.6,34,0.00,,,0.00,WUHU216HW,2013-01-29 18:08:00,
2013-01-29 11:13:00,49.3,22.0,27.46,NNW,338,4.0,6.0,34,0.00,,,0.00,WUHU216HW,2013-01-29 18:13:00,
2013-01-29 11:18:00,49.3,22.0,27.45,SW,225,4.7,6.3,34,0.00,,,0.00,WUHU216HW,2013-01-29 18:18:00,
2013-01-29 11:23:00,49.7,23.6,27.45,WNW,293,4.3,6.9,36,0.00,,,0.00,WUHU216HW,2013-01-29 18:23:00,
2013-01-29 11:28:00,50.0,21.9,27.46,NNW,338,6.3,6.9,33,0.00,,,0.00,WUHU216HW,2013-01-29 18:28:00,
2013-01-29 11:33:00,49.9,21.7,27.46,SSW,203,6.3,6.7,33,0.00,,,0.00,WUHU216HW,2013-01-29 18:33:00,
2013-01-29 11:38:00,49.7,20.2,27.46,West,270,4.3,6.9,31,0.00,,,0.00,WUHU216HW,2013-01-29 18:38:00,
2013-01-29 11:43:00,49.7,20.9,27.45,WNW,293,5.4,6.9,32,0.00,,,0.00,WUHU216HW,2013-01-29 18:43:00,
2013-01-29 11:48:00,49.7,20.2,27.45,NW,315,4.7,7.2,31,0.00,,,0.00,WUHU216HW,2013-01-29 18:48:00,
2013-01-29 11:53:00,49.7,20.9,27.45,WNW,293,1.8,7.2,32,0.00,,,0.00,WUHU216HW,2013-01-29 18:53:00,
2013-01-29 11:58:00,50.2,22.1,27.45,SSW,203,3.4,5.8,33,0.00,,,0.00,WUHU216HW,2013-01-29 18:58:00,
2013-01-29 12:03:00,50.0,20.5,27.45,SE,135,6.7,8.5,31,0.00,,,0.00,WUHU216HW,2013-01-29 19:03:00,
2013-01-29 12:08:00,49.7,20.9,27.45,SW,225,4.0,8.5,32,0.00,,,0.00,WUHU216HW,2013-01-29 19:08:00,
2013-01-29 12:13:00,49.7,20.9,27.44,WSW,248,4.0,8.1,32,0.00,,,0.00,WUHU216HW,2013-01-29 19:13:00,
2013-01-29 12:18:00,49.9,21.1,27.44,SE,135,1.1,8.1,32,0.00,,,0.00,WUHU216HW,2013-01-29 19:18:00,
2013-01-29 12:23:00,49.7,20.9,27.44,West,270,4.0,7.6,32,0.00,,,0.00,WUHU216HW,2013-01-29 19:23:00,
2013-01-29 12:28:00,49.7,20.2,27.43,West,270,2.7,6.9,31,0.00,,,0.00,WUHU216HW,2013-01-29 19:28:00,
2013-01-29 12:33:00,50.0,20.5,27.43,NW,315,3.1,6.9,31,0.00,,,0.00,WUHU216HW,2013-01-29 19:33:00,
2013-01-29 12:38:00,49.9,20.4,27.43,WSW,248,3.6,6.7,31,0.00,,,0.00,WUHU216HW,2013-01-29 19:38:00,
2013-01-29 12:43:00,49.9,19.6,27.43,West,270,3.4,7.2,30,0.00,,,0.00,WUHU216HW,2013-01-29 19:43:00,
2013-01-29 12:48:00,50.0,20.5,27.43,NNW,338,5.8,8.7,31,0.00,,,0.00,WUHU216HW,2013-01-29 19:48:00,
2013-01-29 12:53:00,50.2,20.0,27.43,South,180,2.9,8.7,30,0.00,,,0.00,WUHU216HW,2013-01-29 19:53:00,
2013-01-29 12:58:00,50.4,20.2,27.43,WNW,293,3.4,7.6,30,0.00,,,0.00,WUHU216HW,2013-01-29 19:58:00,
2013-01-29 13:03:00,50.4,20.2,27.43,North,0,2.7,8.1,30,0.00,,,0.00,WUHU216HW,2013-01-29 20:03:00,
2013-01-29 13:08:00,50.6,19.4,27.43,South,180,4.9,8.1,29,0.00,,,0.00,WUHU216HW,2013-01-29 20:08:00,
2013-01-29 13:13:00,50.2,20.0,27.43,WSW,248,3.6,7.4,30,0.00,,,0.00,WUHU216HW,2013-01-29 20:13:00,
2013-01-29 13:18:00,50.6,19.4,27.43,WSW,248,4.7,7.4,29,0.00,,,0.00,WUHU216HW,2013-01-29 20:18:00,
2013-01-29 13:23:00,50.6,21.0,27.43,West,270,3.4,6.0,31,0.00,,,0.00,WUHU216HW,2013-01-29 20:23:00,
2013-01-29 13:28:00,50.8,20.4,27.43,South,180,2.5,8.1,30,0.00,,,0.00,WUHU216HW,2013-01-29 20:28:00,
2013-01-29 13:33:00,50.6,20.3,27.42,NNW,338,6.9,8.1,30,0.00,,,0.00,WUHU216HW,2013-01-29 20:33:00,
2013-01-29 13:38:00,50.8,21.2,27.42,WNW,293,4.7,7.8,31,0.00,,,0.00,WUHU216HW,2013-01-29 20:38:00,
2013-01-29 13:43:00,50.8,20.4,27.42,West,270,4.3,6.9,30,0.00,,,0.00,WUHU216HW,2013-01-29 20:43:00,
2013-01-29 13:48:00,50.8,19.5,27.42,NW,315,3.4,6.5,29,0.00,,,0.00,WUHU216HW,2013-01-29 20:48:00,
2013-01-29 13:53:00,51.1,20.8,27.41,West,270,5.4,6.0,30,0.00,,,0.00,WUHU216HW,2013-01-29 20:53:00,
2013-01-29 13:58:00,51.1,19.8,27.41,SW,225,4.0,6.5,29,0.00,,,0.00,WUHU216HW,2013-01-29 20:58:00,
2013-01-29 14:03:00,50.8,20.4,27.41,WSW,248,3.4,6.5,30,0.00,,,0.00,WUHU216HW,2013-01-29 21:03:00,
2013-01-29 14:08:00,51.5,21.1,27.41,NE,45,4.9,7.4,30,0.00,,,0.00,WUHU216HW,2013-01-29 21:08:00,
2013-01-29 14:13:00,51.5,21.1,27.41,NW,315,4.3,8.3,30,0.00,,,0.00,WUHU216HW,2013-01-29 21:13:00,
2013-01-29 14:18:00,51.5,19.3,27.40,NW,315,4.7,8.3,28,0.00,,,0.00,WUHU216HW,2013-01-29 21:18:00,
2013-01-29 14:23:00,51.8,20.5,27.40,SW,225,5.1,7.8,29,0.00,,,0.00,WUHU216HW,2013-01-29 21:23:00,
2013-01-29 14:28:00,51.5,21.1,27.40,West,270,3.6,7.8,30,0.00,,,0.00,WUHU216HW,2013-01-29 21:28:00,
2013-01-29 14:33:00,51.5,19.3,27.40,SE,135,5.1,7.8,28,0.00,,,0.00,WUHU216HW,2013-01-29 21:33:00,
2013-01-29 14:38:00,52.0,19.7,27.40,WNW,293,3.8,8.1,28,0.00,,,0.00,WUHU216HW,2013-01-29 21:38:00,
2013-01-29 14:43:00,51.8,18.6,27.40,North,0,6.9,8.1,27,0.00,,,0.00,WUHU216HW,2013-01-29 21:43:00,
2013-01-29 14:48:00,51.7,19.4,27.40,WSW,248,6.7,8.1,28,0.00,,,0.00,WUHU216HW,2013-01-29 21:48:00,
2013-01-29 14:53:00,51.3,19.1,27.40,East,90,4.5,8.9,28,0.00,,,0.00,WUHU216HW,2013-01-29 21:53:00,
2013-01-29 14:58:00,51.5,19.3,27.40,WNW,293,6.0,8.9,28,0.00,,,0.00,WUHU216HW,2013-01-29 21:58:00,
2013-01-29 15:03:00,51.8,19.5,27.39,WNW,293,6.9,6.9,28,0.00,,,0.00,WUHU216HW,2013-01-29 22:03:00,
2013-01-29 15:08:00,51.7,20.4,27.39,ESE,113,3.4,6.9,29,0.00,,,0.00,WUHU216HW,2013-01-29 22:08:00,
2013-01-29 15:13:00,51.7,20.4,27.40,East,90,5.4,7.6,29,0.00,,,0.00,WUHU216HW,2013-01-29 22:13:00,
2013-01-29 15:18:00,51.7,20.4,27.40,West,270,4.0,8.5,29,0.00,,,0.00,WUHU216HW,2013-01-29 22:18:00,
2013-01-29 15:23:00,51.7,20.4,27.40,West,270,4.0,8.5,29,0.00,,,0.00,WUHU216HW,2013-01-29 22:23:00,
2013-01-29 15:28:00,51.7,20.4,27.40,SSW,203,6.5,8.5,29,0.00,,,0.00,WUHU216HW,2013-01-29 22:28:00,
2013-01-29 15:33:00,51.5,20.2,27.40,WNW,293,4.9,9.2,29,0.00,,,0.00,WUHU216HW,2013-01-29 22:33:00,
2013-01-29 15:38:00,51.5,20.2,27.40,West,270,3.4,10.3,29,0.00,,,0.00,WUHU216HW,2013-01-29 22:38:00,
2013-01-29 15:43:00,51.8,21.4,27.40,West,270,6.7,10.3,30,0.00,,,0.00,WUHU216HW,2013-01-29 22:43:00,
2013-01-29 15:48:00,51.5,21.1,27.40,North,0,6.3,8.9,30,0.00,,,0.00,WUHU216HW,2013-01-29 22:48:00,
2013-01-29 15:53:00,51.5,21.1,27.40,SW,225,5.1,8.9,30,0.00,,,0.00,WUHU216HW,2013-01-29 22:53:00,
2013-01-29 15:58:00,51.3,21.0,27.40,WSW,248,7.4,8.1,30,0.00,,,0.00,WUHU216HW,2013-01-29 22:58:00,
2013-01-29 16:03:00,51.5,21.1,27.40,NNE,23,2.5,7.6,30,0.00,,,0.00,WUHU216HW,2013-01-29 23:03:00,
2013-01-29 16:08:00,51.8,21.4,27.40,West,270,4.7,6.5,30,0.00,,,0.00,WUHU216HW,2013-01-29 23:08:00,
2013-01-29 16:13:00,52.0,20.6,27.40,ENE,68,2.7,6.9,29,0.00,,,0.00,WUHU216HW,2013-01-29 23:13:00,
2013-01-29 16:18:00,51.8,19.5,27.40,NW,315,5.8,7.4,28,0.00,,,0.00,WUHU216HW,2013-01-29 23:18:00,
2013-01-29 16:23:00,51.7,19.4,27.41,North,0,3.4,8.1,28,0.00,,,0.00,WUHU216HW,2013-01-29 23:23:00,
2013-01-29 16:28:00,51.8,19.5,27.41,West,270,6.5,8.1,28,0.00,,,0.00,WUHU216HW,2013-01-29 23:28:00,
2013-01-29 16:33:00,51.8,20.5,27.41,North,0,4.7,8.7,29,0.00,,,0.00,WUHU216HW,2013-01-29 23:33:00,
2013-01-29 16:38:00,51.7,20.4,27.41,SSW,203,3.8,8.7,29,0.00,,,0.00,WUHU216HW,2013-01-29 23:38:00,
2013-01-29 16:43:00,51.5,21.1,27.41,WSW,248,2.2,7.8,30,0.00,,,0.00,WUHU216HW,2013-01-29 23:43:00,
2013-01-29 16:48:00,51.7,21.2,27.42,West,270,3.4,8.1,30,0.00,,,0.00,WUHU216HW,2013-01-29 23:48:00,
2013-01-29 16:53:00,51.8,21.4,27.42,WSW,248,4.0,8.1,30,0.00,,,0.00,WUHU216HW,2013-01-29 23:53:00,
2013-01-29 16:58:00,51.5,21.1,27.41,West,270,3.4,8.1,30,0.00,,,0.00,WUHU216HW,2013-01-29 23:58:00,
2013-01-29 17:03:00,51.3,21.6,27.41,WSW,248,3.8,8.1,31,0.00,,,0.00,WUHU216HW,2013-01-30 00:03:00,
2013-01-29 17:08:00,51.5,21.8,27.41,NW,315,4.0,8.1,31,0.00,,,0.00,WUHU216HW,2013-01-30 00:08:00,
2013-01-29 17:13:00,51.1,21.4,27.41,WSW,248,5.4,6.3,31,0.00,,,0.00,WUHU216HW,2013-01-30 00:13:00,
2013-01-29 17:18:00,50.9,21.3,27.41,WSW,248,3.8,6.3,31,0.00,,,0.00,WUHU216HW,2013-01-30 00:18:00,
2013-01-29 17:23:00,50.8,21.2,27.41,West,270,3.4,6.7,31,0.00,,,0.00,WUHU216HW,2013-01-30 00:23:00,
2013-01-29 17:28:00,50.2,21.3,27.41,ENE,68,2.5,6.7,32,0.00,,,0.00,WUHU216HW,2013-01-30 00:28:00,
2013-01-29 17:33:00,49.9,21.7,27.42,West,270,3.4,5.4,33,0.00,,,0.00,WUHU216HW,2013-01-30 00:33:00,
2013-01-29 17:38:00,49.7,21.5,27.42,WNW,293,4.0,6.9,33,0.00,,,0.00,WUHU216HW,2013-01-30 00:38:00,
2013-01-29 17:43:00,49.5,21.4,27.42,NW,315,4.0,6.9,33,0.00,,,0.00,WUHU216HW,2013-01-30 00:43:00,
2013-01-29 17:48:00,49.1,21.1,27.42,North,0,2.5,6.7,33,0.00,,,0.00,WUHU216HW,2013-01-30 00:48:00,
2013-01-29 17:53:00,49.0,21.0,27.42,SW,225,5.8,5.8,33,0.00,,,0.00,WUHU216HW,2013-01-30 00:53:00,
2013-01-29 17:58:00,48.8,21.5,27.43,NW,315,2.5,5.8,34,0.00,,,0.00,WUHU216HW,2013-01-30 00:58:00,
2013-01-29 18:03:00,48.6,21.3,27.43,South,180,1.8,6.3,34,0.00,,,0.00,WUHU216HW,2013-01-30 01:03:00,
2013-01-29 18:08:00,48.6,21.3,27.43,SW,225,2.5,6.3,34,0.00,,,0.00,WUHU216HW,2013-01-30 01:08:00,
2013-01-29 18:13:00,48.4,21.2,27.43,WSW,248,1.3,5.4,34,0.00,,,0.00,WUHU216HW,2013-01-30 01:13:00,
2013-01-29 18:18:00,48.2,22.3,27.44,NNW,338,0.9,4.7,36,0.00,,,0.00,WUHU216HW,2013-01-30 01:18:00,
2013-01-29 18:23:00,48.1,22.2,27.44,NW,315,3.4,4.5,36,0.00,,,0.00,WUHU216HW,2013-01-30 01:23:00,
2013-01-29 18:28:00,47.9,22.1,27.44,WSW,248,2.5,4.5,36,0.00,,,0.00,WUHU216HW,2013-01-30 01:28:00,
2013-01-29 18:33:00,47.5,21.7,27.44,West,270,3.4,4.7,36,0.00,,,0.00,WUHU216HW,2013-01-30 01:33:00,
2013-01-29 18:38:00,47.5,21.7,27.45,NW,315,1.8,4.7,36,0.00,,,0.00,WUHU216HW,2013-01-30 01:38:00,
2013-01-29 18:43:00,47.5,22.4,27.45,NW,315,2.5,3.8,37,0.00,,,0.00,WUHU216HW,2013-01-30 01:43:00,
2013-01-29 18:48:00,47.2,22.1,27.45,NW,315,4.0,4.0,37,0.00,,,0.00,WUHU216HW,2013-01-30 01:48:00,
2013-01-29 18:53:00,47.0,22.6,27.46,NW,315,0.9,4.0,38,0.00,,,0.00,WUHU216HW,2013-01-30 01:53:00,
2013-01-29 18:58:00,46.6,22.2,27.46,NW,315,2.2,4.0,38,0.00,,,0.00,WUHU216HW,2013-01-30 01:58:00,
2013-01-29 19:03:00,46.4,22.8,27.46,NW,315,2.5,4.0,39,0.00,,,0.00,WUHU216HW,2013-01-30 02:03:00,
2013-01-29 19:08:00,46.3,22.6,27.46,WNW,293,2.5,4.0,39,0.00,,,0.00,WUHU216HW,2013-01-30 02:08:00,
2013-01-29 19:13:00,46.3,23.2,27.47,NNW,338,2.7,4.0,40,0.00,,,0.00,WUHU216HW,2013-01-30 02:13:00,
2013-01-29 19:18:00,46.1,23.0,27.47,SSW,203,1.8,3.8,40,0.00,,,0.00,WUHU216HW,2013-01-30 02:18:00,
2013-01-29 19:23:00,45.9,23.0,27.46,NW,315,0.7,3.8,40,0.00,,,0.00,WUHU216HW,2013-01-30 02:23:00,
2013-01-29 19:28:00,45.7,23.3,27.47,WSW,248,0.9,3.6,41,0.00,,,0.00,WUHU216HW,2013-01-30 02:28:00,
2013-01-29 19:33:00,45.5,23.7,27.47,West,270,1.6,3.8,42,0.00,,,0.00,WUHU216HW,2013-01-30 02:33:00,
2013-01-29 19:38:00,45.4,23.5,27.47,NW,315,1.1,3.8,42,0.00,,,0.00,WUHU216HW,2013-01-30 02:38:00,
2013-01-29 19:43:00,45.2,23.9,27.48,West,270,0.9,2.7,43,0.00,,,0.00,WUHU216HW,2013-01-30 02:43:00,
2013-01-29 19:48:00,45.0,23.8,27.48,WNW,293,0.4,2.5,43,0.00,,,0.00,WUHU216HW,2013-01-30 02:48:00,
2013-01-29 19:53:00,44.8,24.1,27.48,West,270,1.3,2.5,44,0.00,,,0.00,WUHU216HW,2013-01-30 02:53:00,
2013-01-29 19:58:00,44.6,23.9,27.48,WSW,248,0.0,3.4,44,0.00,,,0.00,WUHU216HW,2013-01-30 02:58:00,
2013-01-29 20:03:00,44.5,23.8,27.48,WNW,293,0.4,3.4,44,0.00,,,0.00,WUHU216HW,2013-01-30 03:03:00,
2013-01-29 20:08:00,44.5,23.8,27.48,WNW,293,0.9,1.8,44,0.00,,,0.00,WUHU216HW,2013-01-30 03:08:00,
2013-01-29 20:13:00,44.3,23.6,27.48,West,270,0.0,2.2,44,0.00,,,0.00,WUHU216HW,2013-01-30 03:13:00,
2013-01-29 20:18:00,44.1,24.0,27.48,NW,315,0.2,2.2,45,0.00,,,0.00,WUHU216HW,2013-01-30 03:18:00,
2013-01-29 20:23:00,43.7,23.7,27.48,East,90,0.2,1.6,45,0.00,,,0.00,WUHU216HW,2013-01-30 03:23:00,
2013-01-29 20:28:00,43.4,23.3,27.49,East,90,0.2,0.4,45,0.00,,,0.00,WUHU216HW,2013-01-30 03:28:00,
2013-01-29 20:33:00,42.8,23.4,27.49,East,90,0.0,0.4,46,0.00,,,0.00,WUHU216HW,2013-01-30 03:33:00,
2013-01-29 20:38:00,42.5,23.0,27.50,East,90,0.4,0.4,46,0.00,,,0.00,WUHU216HW,2013-01-30 03:38:00,
2013-01-29 20:43:00,42.1,23.2,27.49,East,90,0.0,0.4,47,0.00,,,0.00,WUHU216HW,2013-01-30 03:43:00,
2013-01-29 20:48:00,41.9,23.6,27.49,ESE,113,0.0,0.4,48,0.00,,,0.00,WUHU216HW,2013-01-30 03:48:00,
2013-01-29 20:53:00,41.6,23.2,27.49,East,90,0.0,0.0,48,0.00,,,0.00,WUHU216HW,2013-01-30 03:53:00,
2013-01-29 20:58:00,41.4,23.6,27.50,East,90,0.0,0.0,49,0.00,,,0.00,WUHU216HW,2013-01-30 03:58:00,
2013-01-29 21:03:00,41.2,23.4,27.49,East,90,0.0,0.0,49,0.00,,,0.00,WUHU216HW,2013-01-30 04:03:00,
2013-01-29 21:08:00,41.0,23.2,27.50,East,90,0.0,0.0,49,0.00,,,0.00,WUHU216HW,2013-01-30 04:08:00,
2013-01-29 21:13:00,40.7,23.4,27.50,East,90,0.0,0.0,50,0.00,,,0.00,WUHU216HW,2013-01-30 04:13:00,
2013-01-29 21:18:00,40.7,23.4,27.50,East,90,0.0,0.0,50,0.00,,,0.00,WUHU216HW,2013-01-30 04:18:00,
2013-01-29 21:23:00,40.3,23.1,27.50,East,90,0.0,0.0,50,0.00,,,0.00,WUHU216HW,2013-01-30 04:23:00,
2013-01-29 21:28:00,40.5,23.3,27.50,East,90,0.0,0.0,50,0.00,,,0.00,WUHU216HW,2013-01-30 04:28:00,
2013-01-29 21:33:00,40.3,23.1,27.50,East,90,0.0,0.0,50,0.00,,,0.00,WUHU216HW,2013-01-30 04:33:00,
2013-01-29 21:38:00,40.3,23.1,27.51,East,90,0.0,0.0,50,0.00,,,0.00,WUHU216HW,2013-01-30 04:38:00,
2013-01-29 21:43:00,40.1,23.4,27.51,East,90,0.0,0.0,51,0.00,,,0.00,WUHU216HW,2013-01-30 04:43:00,
2013-01-29 21:48:00,40.0,23.7,27.51,SSE,158,0.2,0.4,52,0.00,,,0.00,WUHU216HW,2013-01-30 04:48:00,
2013-01-29 21:53:00,40.1,24.3,27.51,South,180,0.2,0.4,53,0.00,,,0.00,WUHU216HW,2013-01-30 04:53:00,
2013-01-29 21:58:00,40.1,24.3,27.51,South,180,0.0,0.2,53,0.00,,,0.00,WUHU216HW,2013-01-30 04:58:00,
2013-01-29 22:00:00,40.1,24.3,27.51,South,180,0.0,0.2,53,0.00,,,0.00,WUHU216HW,2013-01-30 05:00:00,
2013-01-29 22:01:00,40.1,23.9,27.51,South,180,0.0,0.2,52,0.00,,,0.00,WUHU216HW,2013-01-30 05:01:00,
2013-01-29 22:06:00,40.5,24.6,27.51,SSE,158,0.0,0.7,53,0.00,,,0.00,WUHU216HW,2013-01-30 05:06:00,
2013-01-29 22:11:00,40.7,24.8,27.51,SE,135,0.0,0.7,53,0.00,,,0.00,WUHU216HW,2013-01-30 05:11:00,
2013-01-29 22:16:00,40.7,24.3,27.51,ESE,113,1.1,1.1,52,0.00,,,0.00,WUHU216HW,2013-01-30 05:16:00,
2013-01-29 22:21:00,40.7,24.3,27.51,SSE,158,0.7,1.3,52,0.00,,,0.00,WUHU216HW,2013-01-30 05:21:00,
2013-01-29 22:26:00,40.7,24.3,27.51,SE,135,0.4,1.3,52,0.00,,,0.00,WUHU216HW,2013-01-30 05:26:00,
2013-01-29 22:31:00,40.5,24.1,27.51,SE,135,0.2,0.9,52,0.00,,,0.00,WUHU216HW,2013-01-30 05:31:00,
2013-01-29 22:36:00,40.3,24.0,27.51,SSE,158,0.7,0.7,52,0.00,,,0.00,WUHU216HW,2013-01-30 05:36:00,
2013-01-29 22:41:00,40.3,24.0,27.51,SE,135,0.0,0.7,52,0.00,,,0.00,WUHU216HW,2013-01-30 05:41:00,
2013-01-29 22:46:00,40.1,23.9,27.52,SE,135,0.0,0.7,52,0.00,,,0.00,WUHU216HW,2013-01-30 05:46:00,
2013-01-29 22:51:00,40.0,23.7,27.52,SE,135,0.0,0.0,52,0.00,,,0.00,WUHU216HW,2013-01-30 05:51:00,
2013-01-29 22:56:00,39.6,23.8,27.52,SE,135,0.0,0.0,53,0.00,,,0.00,WUHU216HW,2013-01-30 05:56:00,
2013-01-29 23:01:00,39.2,23.4,27.52,SE,135,0.0,0.0,53,0.00,,,0.00,WUHU216HW,2013-01-30 06:01:00,
2013-01-29 23:06:00,39.2,23.4,27.52,SE,135,0.0,0.0,53,0.00,,,0.00,WUHU216HW,2013-01-30 06:06:00,
2013-01-29 23:11:00,39.2,23.4,27.52,SE,135,0.0,0.0,53,0.00,,,0.00,WUHU216HW,2013-01-30 06:11:00,
2013-01-29 23:16:00,39.1,23.7,27.53,SE,135,0.0,0.0,54,0.00,,,0.00,WUHU216HW,2013-01-30 06:16:00,
2013-01-29 23:21:00,39.1,23.7,27.52,SE,135,0.0,0.0,54,0.00,,,0.00,WUHU216HW,2013-01-30 06:21:00,
2013-01-29 23:26:00,38.9,23.6,27.52,SE,135,0.0,0.0,54,0.00,,,0.00,WUHU216HW,2013-01-30 06:26:00,
2013-01-29 23:31:00,38.7,23.4,27.52,SE,135,0.0,0.0,54,0.00,,,0.00,WUHU216HW,2013-01-30 06:31:00,
2013-01-29 23:36:00,38.5,23.7,27.52,SE,135,0.0,0.0,55,0.00,,,0.00,WUHU216HW,2013-01-30 06:36:00,
2013-01-29 23:41:00,38.3,24.0,27.53,SE,135,0.0,0.0,56,0.00,,,0.00,WUHU216HW,2013-01-30 06:41:00,
2013-01-29 23:46:00,38.2,23.8,27.53,SE,135,0.0,0.0,56,0.00,,,0.00,WUHU216HW,2013-01-30 06:46:00,
2013-01-29 23:51:00,38.0,23.6,27.53,SE,135,0.0,0.0,56,0.00,,,0.00,WUHU216HW,2013-01-30 06:51:00,
2013-01-29 23:56:00,37.8,24.3,27.53,SE,135,0.0,0.0,58,0.00,,,0.00,WUHU216HW,2013-01-30 06:56:00,